Silver Bay, MN

4:34 AM CDT on July 27, 2017 (GMT -0500)
Silver Bay Municipal

Weather History for KBFW - November, 2012

Change the Weather History Date:

Friday, November 30, 2012

  Actual Average Record
Temperature  
Mean Temperature 27 °F -  
Max Temperature 30 °F 28 °F 44 °F (1998)
Min Temperature 24 °F 14 °F -5 °F (2007)
Degree Days  
Heating Degree Days 38    
Moisture  
Dew Point 20 °F    
Average Humidity 74    
Maximum Humidity 86    
Minimum Humidity 69    
Precipitation  
Precipitation 0.00 in - - ()
Sea Level Pressure  
Sea Level Pressure 30.18 in    
Wind  
Wind Speed 10 mph (ESE)    
Max Wind Speed 15 mph    
Max Gust Speed 22 mph    
Visibility 9 miles    
Events Snow    
Averages and records for this station are not official NWS values.
T = Trace of Precipitation, MM = Missing Value Source: NWS Daily Summary

Daily Weather History Graph

Daily Weather History Graph

Search for Another Location

Airport or City:

Trip Planner

Search our weather history database for the weather conditions in past years. The results will help you decide how hot, cold, wet, or windy it might be!

Date:

Astronomy

Nov. 30, 2012 Rise Set
Actual Time 7:31 AM CST 4:17 PM CST
Civil Twilight 6:56 AM CST 4:52 PM CST
Nautical Twilight 6:17 AM CST 5:30 PM CST
Astronomical Twilight 5:41 AM CST 6:07 PM CST
Moon 6:13 PM CST (11/30) 9:02 AM CST (11/30)
Length of Visible Light 9h 56m
Length of Day
8h 46m
Waning Gibbous, 96% of the Moon is Illuminated
Nov 30
Waning Gibbous
Dec 6
Last Quarter
Dec 13
New
Dec 19
First Quarter
Dec 28
Full

Hourly Weather History & Observations

Time (CST) Temp. Windchill Dew Point Humidity Pressure Visibility Wind Dir Wind Speed Gust Speed Precip Events Conditions
12:13 AM 24.8 °F 14.6 °F 19.4 °F 80% 30.23 in 10.0 mi East 10.4 mph - N/A Snow Light Snow
12:33 AM 24.8 °F 14.0 °F 19.4 °F 80% 30.23 in 7.0 mi East 11.5 mph 18.4 mph N/A   Mostly Cloudy
12:53 AM 24.8 °F 12.4 °F 19.4 °F 80% 30.23 in 5.0 mi East 15.0 mph 18.4 mph N/A   Haze
1:13 AM 24.8 °F 13.4 °F 19.4 °F 80% 30.23 in 10.0 mi East 12.7 mph 19.6 mph N/A   Mostly Cloudy
1:33 AM 24.8 °F 14.0 °F 19.4 °F 80% 30.23 in 7.0 mi East 11.5 mph 17.3 mph N/A   Mostly Cloudy
1:53 AM 24.8 °F 13.4 °F 19.4 °F 80% 30.23 in 5.0 mi East 12.7 mph 20.7 mph N/A   Haze
2:13 AM - - - N/A% 30.23 in 4.0 mi East 12.7 mph 19.6 mph N/A   Haze
2:34 AM 24.8 °F 14.6 °F 19.4 °F 80% 30.23 in 7.0 mi East 10.4 mph 18.4 mph N/A   Mostly Cloudy
2:53 AM 24.8 °F 14.0 °F 19.4 °F 80% 30.23 in 7.0 mi East 11.5 mph 18.4 mph N/A   Mostly Cloudy
3:13 AM 24.8 °F 14.0 °F 17.6 °F 74% 30.23 in 5.0 mi East 11.5 mph - N/A Snow Light Snow
3:53 AM 24.8 °F 16.1 °F 19.4 °F 80% 30.23 in 7.0 mi East 8.1 mph - N/A   Mostly Cloudy
4:13 AM 24.8 °F 12.9 °F 17.6 °F 74% 30.23 in 10.0 mi East 13.8 mph 18.4 mph N/A   Scattered Clouds
4:33 AM 24.8 °F 13.4 °F 17.6 °F 74% 30.22 in 10.0 mi ENE 12.7 mph 18.4 mph N/A   Scattered Clouds
4:53 AM 24.8 °F 14.6 °F 19.4 °F 80% 30.22 in 10.0 mi East 10.4 mph 17.3 mph N/A   Mostly Cloudy
5:13 AM 24.8 °F 14.0 °F 19.4 °F 80% 30.22 in 10.0 mi East 11.5 mph 21.9 mph N/A   Mostly Cloudy
5:53 AM 26.6 °F 15.2 °F 17.6 °F 69% 30.23 in 10.0 mi East 13.8 mph 20.7 mph N/A   Clear
6:13 AM 26.6 °F 15.7 °F 17.6 °F 69% 30.22 in 10.0 mi East 12.7 mph 18.4 mph N/A   Clear
6:33 AM 26.6 °F 16.2 °F 17.6 °F 69% 30.22 in 10.0 mi East 11.5 mph 17.3 mph N/A   Scattered Clouds
6:53 AM 26.6 °F 16.8 °F 17.6 °F 69% 30.22 in 10.0 mi East 10.4 mph 18.4 mph N/A   Scattered Clouds
7:13 AM 26.6 °F 16.8 °F 17.6 °F 69% 30.22 in 10.0 mi East 10.4 mph 21.9 mph N/A   Scattered Clouds
7:33 AM 26.6 °F 16.2 °F 19.4 °F 74% 30.23 in 10.0 mi East 11.5 mph 16.1 mph N/A   Scattered Clouds
7:54 AM 26.6 °F 16.2 °F 19.4 °F 74% - 10.0 mi East 11.5 mph - N/A   Mostly Cloudy
8:13 AM 26.6 °F 15.2 °F 19.4 °F 74% 30.22 in 7.0 mi East 13.8 mph 19.6 mph N/A   Mostly Cloudy
8:33 AM 26.6 °F 14.7 °F 19.4 °F 74% 30.23 in 10.0 mi East 15.0 mph - N/A   Mostly Cloudy
8:53 AM 26.6 °F 17.5 °F 19.4 °F 74% 30.24 in 10.0 mi ESE 9.2 mph 19.6 mph N/A   Mostly Cloudy
9:13 AM 26.6 °F 15.7 °F 19.4 °F 74% 30.24 in 10.0 mi ESE 12.7 mph 17.3 mph N/A   Scattered Clouds
9:33 AM 26.6 °F 16.8 °F 17.6 °F 69% 30.23 in 10.0 mi East 10.4 mph 18.4 mph N/A   Scattered Clouds
9:53 AM 26.6 °F 15.2 °F 19.4 °F 74% 30.23 in 10.0 mi East 13.8 mph 19.6 mph N/A   Scattered Clouds
10:13 AM 28.4 °F 17.5 °F 19.4 °F 69% 30.23 in 10.0 mi ESE 13.8 mph 18.4 mph N/A   Scattered Clouds
10:33 AM 28.4 °F 19.1 °F 19.4 °F 69% 30.23 in 10.0 mi East 10.4 mph 17.3 mph N/A   Scattered Clouds
10:53 AM 28.4 °F 19.7 °F 19.4 °F 69% 30.22 in 10.0 mi ESE 9.2 mph 17.3 mph N/A   Scattered Clouds
11:13 AM 28.4 °F 19.7 °F 19.4 °F 69% 30.23 in 10.0 mi East 9.2 mph 17.3 mph N/A   Scattered Clouds
11:33 AM 28.4 °F 18.5 °F 19.4 °F 69% 30.21 in 10.0 mi East 11.5 mph 16.1 mph N/A   Scattered Clouds
11:53 AM 28.4 °F 19.1 °F 19.4 °F 69% 30.21 in 10.0 mi East 10.4 mph 16.1 mph N/A   Scattered Clouds
12:13 PM 28.4 °F 19.7 °F 19.4 °F 69% 30.20 in 10.0 mi ESE 9.2 mph - N/A   Clear
12:33 PM 28.4 °F 20.4 °F 19.4 °F 69% 30.19 in 10.0 mi East 8.1 mph - N/A   Clear
12:53 PM 28.4 °F 19.7 °F 19.4 °F 69% 30.18 in 10.0 mi East 9.2 mph - N/A   Clear
1:13 PM 28.4 °F 23.3 °F 19.4 °F 69% 30.19 in 10.0 mi East 4.6 mph - N/A   Clear
1:33 PM 28.4 °F 21.2 °F 19.4 °F 69% 30.17 in 10.0 mi East 6.9 mph - N/A   Clear
1:53 PM 28.4 °F 20.4 °F 19.4 °F 69% 30.18 in 10.0 mi East 8.1 mph - N/A   Clear
2:14 PM 28.4 °F 21.2 °F 19.4 °F 69% 30.17 in 10.0 mi East 6.9 mph - N/A   Scattered Clouds
2:33 PM 28.4 °F 22.2 °F 19.4 °F 69% 30.17 in 10.0 mi ESE 5.8 mph - N/A   Scattered Clouds
2:53 PM 28.4 °F 22.2 °F 19.4 °F 69% 30.17 in 10.0 mi East 5.8 mph - N/A   Scattered Clouds
3:13 PM 28.4 °F 20.4 °F 19.4 °F 69% 30.16 in 10.0 mi ESE 8.1 mph - N/A   Scattered Clouds
3:33 PM 28.4 °F 21.2 °F 19.4 °F 69% 30.16 in 10.0 mi ESE 6.9 mph - N/A   Scattered Clouds
3:53 PM 28.4 °F 23.3 °F 19.4 °F 69% 30.16 in 10.0 mi ESE 4.6 mph - N/A   Scattered Clouds
4:13 PM 28.4 °F - 19.4 °F 69% 30.17 in 10.0 mi Calm Calm - N/A   Mostly Cloudy
4:33 PM 28.4 °F 23.3 °F 19.4 °F 69% 30.17 in 10.0 mi East 4.6 mph - N/A   Scattered Clouds
4:53 PM 28.4 °F 23.3 °F 19.4 °F 69% 30.17 in 10.0 mi ESE 4.6 mph - N/A   Scattered Clouds
5:13 PM 28.4 °F 24.6 °F 19.4 °F 69% 30.16 in 10.0 mi ESE 3.5 mph - N/A   Scattered Clouds
5:33 PM 28.4 °F 22.2 °F 19.4 °F 69% 30.14 in 10.0 mi ESE 5.8 mph - N/A   Scattered Clouds
6:13 PM 28.4 °F 21.2 °F 21.2 °F 74% 30.14 in 10.0 mi East 6.9 mph - N/A   Mostly Cloudy
6:33 PM 28.4 °F 22.2 °F 19.4 °F 69% 30.13 in 10.0 mi ESE 5.8 mph - N/A   Mostly Cloudy
6:53 PM 28.4 °F 23.3 °F 21.2 °F 74% 30.13 in 10.0 mi SE 4.6 mph - N/A   Mostly Cloudy
7:13 PM 28.4 °F 22.2 °F 21.2 °F 74% 30.12 in 10.0 mi ESE 5.8 mph - N/A   Mostly Cloudy
7:33 PM 28.4 °F 23.3 °F 21.2 °F 74% 30.12 in 10.0 mi ESE 4.6 mph - N/A   Mostly Cloudy
7:53 PM 28.4 °F 22.2 °F 21.2 °F 74% 30.11 in 10.0 mi ESE 5.8 mph - N/A   Mostly Cloudy
8:13 PM 28.4 °F 23.3 °F 21.2 °F 74% 30.11 in 10.0 mi ESE 4.6 mph - N/A   Scattered Clouds
8:33 PM 28.4 °F 24.6 °F 23.0 °F 80% 30.10 in 10.0 mi ESE 3.5 mph - N/A   Scattered Clouds
9:13 PM 30.2 °F 24.3 °F 24.8 °F 80% 30.09 in 10.0 mi SSE 5.8 mph - N/A   Scattered Clouds
9:33 PM 30.2 °F 26.7 °F 24.8 °F 80% 30.09 in 7.0 mi SE 3.5 mph - N/A   Scattered Clouds
9:53 PM 30.2 °F 25.4 °F 24.8 °F 80% 30.10 in 7.0 mi SSE 4.6 mph - N/A   Scattered Clouds
10:14 PM 30.2 °F 26.7 °F 24.8 °F 80% 30.10 in 7.0 mi SSE 3.5 mph - N/A   Scattered Clouds
10:33 PM 30.2 °F 25.4 °F 26.6 °F 86% 30.08 in 7.0 mi SSE 4.6 mph - N/A   Scattered Clouds
10:53 PM 30.2 °F 26.7 °F 26.6 °F 86% 30.08 in 7.0 mi SSE 3.5 mph - N/A   Scattered Clouds
11:13 PM 30.2 °F 26.7 °F 26.6 °F 86% 30.07 in 10.0 mi SE 3.5 mph - N/A   Scattered Clouds
11:34 PM 30.2 °F - 26.6 °F 86% 30.07 in 10.0 mi Calm Calm - N/A   Scattered Clouds
11:53 PM 30.2 °F - 26.6 °F 86% 30.06 in 10.0 mi Calm Calm - N/A   Scattered Clouds